Find Starlink 33732

NORAD ID: 63575 Int'l Des: 2025-076 Owner: SPXS Country: US Constellation: starlink operational
LEOCIRCULAR

Live-Position

3D-Globus wird geladen...

Über Starlink 33732

Beschreibung wird geladen...

Nächste Überflüge

Passes for default location (London). Set your location on the main map for personalized predictions.

Höhenverlauf

Loading altitude history...

Zweizeiliger Elementsatz

1 63575U 25076G 26126.32755333 .00019316 00000-0 70854-3 0 9991
2 63575 43.0012 356.3433 0002792 250.8364 109.2186 15.27627501 60642
Epoch: 6. Mai 2026 • Age: 15 hours

Aktueller Status

Höhe 486.0 km
Geschwindigkeit 7.62 km/s
Subsatellitenpunkt -20.40°S, 12.16°W
Startdatum 14. Apr. 2025
Alter 1 years
Typ internet

Technische Details

Klassifizierung Payload
Masse 575.00 kg
Trockenmasse 530.00 kg
Gesamtmasse 575.00 kg
Länge 0.30 m
Durchmesser 4.10 m
Spannweite 29.00 m
Form Box + pan
Hersteller SPXS
Bus-Typ Starlink V2MO
Phasenstatus In Orbit
Besitzer/Staat SPXS/US

Most Searched